Flag for U.S.A. Weather past 2 weeks in Portland, Oregon, U.S.A.

Now
63 °F

Mostly cloudy.


Feels Like: 63 °F
Forecast: 60 / 75 °F
Wind: No wind

Location: Portland International Airport

Current Time: Sep 18, 2014 at 11:36:23 AM

Latest Report: Sep 18, 2014 at 11:02 AM


Visibility: 10 mi

Pressure: 29.86 "Hg

Humidity: 90%

Dew point: 60 °F

Location of PortlandLocation

Historic Weather in Portland — Graph

°F

Portland temperature yesterday

Maximum temperature yesterday: 77 °F (at 4:53 PM)
Minimum temperature yesterday: 61 °F (at 2:53 AM)
Average temperature yesterday: 68 °F

Past Weeks' High & Low Weather Summary

 TemperatureHumidityPressure
High94 °F (Sep 6, 3:53 PM)97% (Sep 18, 9:53 AM)30.21 "Hg (Sep 18, 9:53 AM)
Low51 °F (Sep 4, 5:53 AM)12% (Sep 13, 1:53 PM)29.68 "Hg (Sep 17, 5:53 PM)
Average68 °F54%29.93 "Hg
* Reported Sep 3 9:53 AM — Sep 18 9:53 AM, Portland, Weather by CustomWeather, © 2014

Note: Actual official high and low records may vary slightly from our data, if they occured in-between our weather recording intervals... More about our weather records

Advertising

Portland weather history for previous 24 hours

 ConditionsComfort  
Time TempWeatherWind HumidityBarometerVisibility
9:53 AM
Sep 18
61 °FLight rain. More clouds than sun.No wind97%29.84 "Hg7 mi
8:53 AM61 °FLight rain. Mostly cloudy.No wind93%29.82 "Hg7 mi
7:53 AM62 °FLight rain. Fog.3 mph90%29.80 "Hg4 mi
6:53 AM63 °FLight rain. Mostly cloudy.3 mph93%29.77 "Hg7 mi
5:53 AM63 °FLight rain. Mostly cloudy.3 mph90%29.75 "Hg10 mi
4:53 AM64 °FOvercast.No wind84%29.73 "Hg10 mi
3:53 AM63 °FMostly cloudy.No wind87%29.73 "Hg10 mi
2:53 AM64 °FPassing clouds.3 mph87%29.73 "Hg10 mi
1:53 AM64 °FPartly cloudy.No wind81%29.73 "Hg10 mi
12:53 AM66 °FOvercast.No wind75%29.73 "Hg10 mi
11:53 PM
Sep 17
69 °FOvercast.7 mph68%29.73 "Hg10 mi
10:53 PM68 °FOvercast.3 mph73%29.74 "Hg10 mi
9:53 PM69 °FMostly cloudy.6 mph70%29.74 "Hg10 mi
8:53 PM70 °FPassing clouds.6 mph71%29.73 "Hg10 mi
7:53 PM72 °FMore clouds than sun.3 mph61%29.71 "Hg10 mi
6:53 PM73 °FBroken clouds.3 mph57%29.71 "Hg10 mi
5:53 PM73 °FCloudy.6 mph62%29.68 "Hg10 mi
4:53 PM77 °FCloudy.8 mph47%29.71 "Hg10 mi
3:53 PM76 °FCloudy.No wind48%29.69 "Hg10 mi
2:53 PM75 °FMostly cloudy.No wind50%29.70 "Hg10 mi
1:53 PM75 °FMore clouds than sun.7 mph50%29.70 "Hg10 mi
12:53 PM73 °FBroken clouds.No wind55%29.70 "Hg10 mi
11:53 AM71 °FBroken clouds.No wind59%29.71 "Hg10 mi
Weather by CustomWeather, © 2014

See weather overviewHow to use our weather pages